Location: Weatherford
(35.5260°N, 98.7070°W)
Time: 18:56:12
(UTC-05:00)

Amateur Radio Satellites - All Passes

Search period start: 22 October 2014 18:26
Search period end: 23 October 2014 18:26
Location: Weatherford, 35.5260°N, 98.7070°W

Satellite Date Start Highest point End Downlink Frequencies (MHz)
Time Altitude Azimuth
Hamsat 22 Oct 18:43:14 18:47:27 88° 256° (WSW) 18:51:41 145.90 MHz
JAS-2 22 Oct 18:51:35 18:57:08 58° 261° (W) 19:03:27 435.800 - 435.900 CW/SSB, 435.910 FM
Saudisat 1A 22 Oct 19:00:29 19:04:21 30° 247° (WSW) 19:08:12 436.775 MHz
OPAL 22 Oct 19:05:39 19:10:37 73° 287° (WNW) 19:15:31 ?
STRAND 1 22 Oct 19:09:36 19:11:42 12° 92° (E) 19:13:47 ?
AO-40 22 Oct 19:29:13 02:09:57 51° 182° (S) 04:58:13 Beacon 2401.320
HO-68 22 Oct 19:53:01 19:55:30 12° 55° (NE) 19:57:58 435.675 MHz FM
SO-67 22 Oct 20:04:21 20:07:46 74° 259° (W) 20:11:12 435.3500 MHz FM
ISS 22 Oct 20:16:17 20:18:40 18° 30° (NNE) 20:21:03 145.800 FM
STRAND 1 22 Oct 20:46:10 20:51:16 64° 286° (WNW) 20:56:20 ?
KITSAT 1 22 Oct 20:56:59 21:02:06 18° 40° (NE) 21:07:12 435.175 FM
HO-68 22 Oct 21:34:51 21:41:57 73° 72° (ENE) 21:49:07 435.675 MHz FM
UKube-1 22 Oct 21:42:51 21:46:20 24° 69° (ENE) 21:49:51 145.840 MHz, 145.915 MHz
RS-15 22 Oct 21:48:20 21:56:43 26° 103° (ESE) 22:04:56 29.354 - 29.394 USB, Beacon 29.352 USB
ISS 22 Oct 21:52:19 21:55:34 50° 226° (SW) 21:58:47 145.800 FM
FUNcube-1 22 Oct 22:18:20 22:21:54 23° 69° (ENE) 22:25:26 145.950 - 145.970 MHz USB
Oscar 11 22 Oct 22:25:34 22:29:52 66° 76° (ENE) 22:34:10 145.825 FM, Beacon 2401.500 USB
SO-50 22 Oct 22:26:38 22:30:26 22° 50° (NE) 22:34:15 436.795 FM
KITSAT 1 22 Oct 22:50:46 22:58:53 77° 61° (ENE) 23:06:56 435.175 FM
ZACube-1 22 Oct 23:08:02 23:12:38 83° 77° (ENE) 23:17:14 437.345 MHz
UKube-1 22 Oct 23:18:49 23:22:24 25° 263° (W) 23:26:00 145.840 MHz, 145.915 MHz
HO-68 22 Oct 23:25:44 23:30:12 17° 267° (W) 23:34:42 435.675 MHz FM
FUNcube-1 22 Oct 23:54:02 23:58:04 30° 263° (W) 00:02:06 145.950 - 145.970 MHz USB
RS-15 22 Oct 23:56:54 00:07:55 74° 301° (WNW) 00:18:52 29.354 - 29.394 USB, Beacon 29.352 USB
UOSAT-12 23 Oct 00:02:58 00:06:17 19° 48° (NE) 00:09:33 437.025 FM, 437.400 FM
SO-50 23 Oct 00:06:34 00:11:08 42° 246° (WSW) 00:15:43 436.795 FM
KITSAT 1 23 Oct 00:48:04 00:53:22 19° 258° (WSW) 00:58:39 435.175 FM
MaSat-1 23 Oct 01:03:35 01:07:53 74° 293° (WNW) 01:11:49 437.345 MHz
UOSAT-12 23 Oct 01:42:10 01:46:42 49° 245° (WSW) 01:51:07 437.025 FM, 437.400 FM
Oscar 16 23 Oct 02:07:55 02:11:32 19° 94° (E) 02:15:09 437.025 USB, Beacon 2401.1428
JAS-1B 23 Oct 02:08:53 02:14:15 23° 97° (E) 02:20:16 435.800 - 435.900 CW/SSB
RS-15 23 Oct 02:14:42 02:22:32 22° 327° (NNW) 02:30:25 29.354 - 29.394 USB, Beacon 29.352 USB
AO-Echo 23 Oct 02:21:04 02:23:32 13° 91° (E) 02:26:00 ?
Uribyol 2 23 Oct 02:26:00 02:27:04 11° 91° (E) 02:28:08 436.500 FM
ITAMSAT 1 23 Oct 02:30:54 02:32:35 11° 91° (E) 02:34:16 435.822 SSB
Oscar 19 23 Oct 03:00:33 03:05:39 67° 102° (ESE) 03:10:44 437.125 CW, 437.150 USB
Oscar 10/S400 23 Oct 03:03:55 03:55:08 15° 251° (WSW) 05:24:36 145.825 - 145.975 CW/USB, Beacon 145.810 USB
AO-27 23 Oct 03:13:21 03:18:06 34° 98° (E) 03:22:48 436.795 MHz FM
Sapphire 23 Oct 03:42:58 03:45:31 14° 103° (ESE) 03:48:04 437.095 MHz 1200 baud AX-25 AFSK
Oscar 16 23 Oct 03:46:13 03:51:01 42° 289° (WNW) 03:55:48 437.025 USB, Beacon 2401.1428
AO-Echo 23 Oct 03:57:24 04:02:40 65° 286° (WNW) 04:07:54 ?
JAS-1B 23 Oct 03:58:24 04:04:54 57° 287° (WNW) 04:12:40 435.800 - 435.900 CW/SSB
Uribyol 2 23 Oct 04:01:48 04:07:01 74° 285° (WNW) 04:12:10 436.500 FM
PCSat 23 Oct 04:03:44 04:08:02 25° 107° (ESE) 04:12:22 145.825 MHz
ITAMSAT 1 23 Oct 04:07:18 04:12:31 70° 286° (WNW) 04:17:41 435.822 SSB
Gurwin Techsat 1B 23 Oct 04:15:07 04:20:26 72° 102° (ESE) 04:25:44 435.225 FM
TMSAT-1 23 Oct 04:27:42 04:33:00 69° 102° (ESE) 04:38:16 436.925 FM
AO-7 23 Oct 04:30:35 04:36:10 19° 94° (E) 04:41:43 29.400 - 29.500 MHz
RS-15 23 Oct 04:37:27 04:41:20 12° 5° (N) 04:45:14 29.354 - 29.394 USB, Beacon 29.352 USB
OPAL 23 Oct 04:41:15 04:44:16 16° 62° (ENE) 04:47:16 ?
Oscar 19 23 Oct 04:42:05 04:44:23 13° 297° (WNW) 04:46:41 437.125 CW, 437.150 USB
AO-27 23 Oct 04:53:10 04:57:24 25° 293° (WNW) 05:01:36 436.795 MHz FM
Sapphire 23 Oct 05:22:55 05:28:17 67° 298° (WNW) 05:33:42 437.095 MHz 1200 baud AX-25 AFSK
Uosat F 23 Oct 05:40:39 05:45:32 48° 100° (E) 05:50:23 435.120 FM
PCSat 23 Oct 05:46:10 05:51:11 39° 302° (WNW) 05:56:15 145.825 MHz
Gurwin Techsat 1B 23 Oct 05:57:23 05:59:44 13° 297° (WNW) 06:02:05 435.225 FM
JAS-2 23 Oct 06:03:34 06:10:07 29° 94° (E) 06:16:35 435.800 - 435.900 CW/SSB, 435.910 FM
TMSAT-1 23 Oct 06:09:47 06:12:16 14° 297° (WNW) 06:14:45 436.925 FM
OPAL 23 Oct 06:17:34 06:22:39 58° 257° (WSW) 06:27:42 ?
AO-7 23 Oct 06:21:16 06:29:35 77° 289° (WNW) 06:37:54 29.400 - 29.500 MHz
STRAND 1 23 Oct 06:22:45 06:25:28 15° 64° (ENE) 06:28:11 ?
Hamsat 23 Oct 06:32:39 06:35:44 20° 95° (E) 06:38:50 145.90 MHz
RS-15 23 Oct 06:50:04 06:59:20 29° 40° (NE) 07:08:50 29.354 - 29.394 USB, Beacon 29.352 USB
Uosat F 23 Oct 07:20:37 07:23:54 18° 295° (WNW) 07:27:11 435.120 FM
Saudisat 1A 23 Oct 07:27:11 07:28:40 12° 107° (ESE) 07:30:10 436.775 MHz
JAS-2 23 Oct 07:47:45 07:55:17 56° 289° (WNW) 08:02:49 435.800 - 435.900 CW/SSB, 435.910 FM
STRAND 1 23 Oct 07:59:03 08:04:05 61° 259° (WSW) 08:09:11 ?
Hamsat 23 Oct 08:08:05 08:11:39 27° 289° (WNW) 08:15:13 145.90 MHz
AO-7 23 Oct 08:16:45 08:21:01 15° 308° (NW) 08:25:19 29.400 - 29.500 MHz
RS-15 23 Oct 09:01:47 09:13:04 84° 243° (WSW) 09:24:50 29.354 - 29.394 USB, Beacon 29.352 USB
Saudisat 1A 23 Oct 09:03:23 09:07:42 57° 302° (WNW) 09:12:03 436.775 MHz
SO-67 23 Oct 09:03:28 09:06:42 38° 285° (WNW) 09:09:54 435.3500 MHz FM
HO-68 23 Oct 09:08:21 09:12:10 15° 92° (E) 09:15:58 435.675 MHz FM
PANSAT 23 Oct 09:11:48 09:14:44 21° 168° (SSE) 09:17:40 not established
Oscar 11 23 Oct 10:17:38 10:20:06 15° 93° (E) 10:22:33 145.825 FM, Beacon 2401.500 USB
PANSAT 23 Oct 10:51:07 10:54:26 28° 181° (S) 10:57:44 not established
MaSat-1 23 Oct 10:53:14 10:55:47 70° 248° (WSW) 10:58:09 437.345 MHz
HO-68 23 Oct 10:53:19 11:00:32 82° 287° (WNW) 11:07:43 435.675 MHz FM
ZACube-1 23 Oct 11:01:32 11:04:34 19° 94° (E) 11:07:32 437.345 MHz
UKube-1 23 Oct 11:09:01 11:13:23 68° 102° (ESE) 11:17:43 145.840 MHz, 145.915 MHz
RS-15 23 Oct 11:17:19 11:23:50 17° 260° (W) 11:30:31 29.354 - 29.394 USB, Beacon 29.352 USB
KITSAT 1 23 Oct 11:25:52 11:28:58 13° 99° (E) 11:32:03 435.175 FM
FUNcube-1 23 Oct 11:45:45 11:49:59 66° 101° (E) 11:54:07 145.950 - 145.970 MHz USB
Oscar 11 23 Oct 11:52:24 11:56:24 38° 287° (WNW) 12:00:23 145.825 FM, Beacon 2401.500 USB
PANSAT 23 Oct 12:31:17 12:34:06 20° 193° (SSW) 12:36:56 not established
ZACube-1 23 Oct 12:37:18 12:40:58 29° 289° (WNW) 12:44:34 437.345 MHz
SO-50 23 Oct 12:41:26 12:42:49 11° 107° (ESE) 12:44:12 436.795 FM
HO-68 23 Oct 12:43:45 12:47:08 14° 304° (NW) 12:50:31 435.675 MHz FM
PCSat 23 Oct 12:55:32 12:57:52 13° 46° (NE) 13:00:11 145.825 MHz
ISS 23 Oct 12:56:18 12:58:55 22° 130° (SE) 13:01:32 145.800 FM
JAS-1B 23 Oct 12:56:33 12:57:53 11° 61° (ENE) 12:59:13 435.800 - 435.900 CW/SSB
Oscar 10/S400 23 Oct 12:59:57 13:21:47 34° 152° (SSE) 13:38:41 145.825 - 145.975 CW/USB, Beacon 145.810 USB
KITSAT 1 23 Oct 13:15:02 13:23:06 81° 115° (ESE) 13:31:12 435.175 FM
Oscar 16 23 Oct 13:22:07 13:26:01 22° 67° (ENE) 13:29:54 437.025 USB, Beacon 2401.1428
AO-Echo 23 Oct 13:32:13 13:34:04 12° 62° (ENE) 13:35:55 ?
Uribyol 2 23 Oct 13:40:25 13:42:56 14° 63° (ENE) 13:45:28 436.500 FM
ITAMSAT 1 23 Oct 13:45:47 13:48:32 15° 63° (ENE) 13:51:17 435.822 SSB
Sapphire 23 Oct 14:13:57 14:19:15 51° 60° (ENE) 14:24:30 437.095 MHz 1200 baud AX-25 AFSK
Oscar 19 23 Oct 14:14:22 14:19:29 71° 75° (ENE) 14:24:37 437.125 CW, 437.150 USB
SO-50 23 Oct 14:18:20 14:22:45 61° 302° (WNW) 14:27:18 436.795 FM
AO-27 23 Oct 14:28:34 14:33:21 39° 71° (ENE) 14:38:11 436.795 MHz FM
ISS 23 Oct 14:32:28 14:35:28 31° 325° (NW) 14:38:30 145.800 FM
PCSat 23 Oct 14:36:35 14:42:02 88° 64° (ENE) 14:47:27 145.825 MHz
JAS-1B 23 Oct 14:41:40 14:47:53 83° 256° (WSW) 14:53:36 435.800 - 435.900 CW/SSB
Oscar 16 23 Oct 15:00:16 15:05:04 39° 261° (W) 15:09:54 437.025 USB, Beacon 2401.1428
AO-Echo 23 Oct 15:07:21 15:12:08 68° 259° (WSW) 15:17:07 ?
KITSAT 1 23 Oct 15:13:15 15:19:22 23° 315° (NW) 15:25:32 435.175 FM
Uribyol 2 23 Oct 15:16:37 15:21:47 67° 258° (WSW) 15:27:00 436.500 FM
ITAMSAT 1 23 Oct 15:22:18 15:27:26 63° 259° (WSW) 15:32:38 435.822 SSB
AO-7 23 Oct 15:26:58 15:32:56 23° 57° (ENE) 15:38:53 29.400 - 29.500 MHz
Gurwin Techsat 1B 23 Oct 15:33:10 15:38:28 83° 76° (ENE) 15:43:48 435.225 FM
TMSAT-1 23 Oct 15:45:24 15:50:41 80° 75° (ENE) 15:56:00 436.925 FM
UOSAT-12 23 Oct 15:49:57 15:54:34 80° 300° (WNW) 15:59:17 437.025 FM, 437.400 FM
Oscar 19 23 Oct 15:57:53 15:59:16 11° 269° (W) 16:00:38 437.125 CW, 437.150 USB
Sapphire 23 Oct 15:58:35 16:02:12 18° 255° (WSW) 16:05:49 437.095 MHz 1200 baud AX-25 AFSK
AO-27 23 Oct 16:09:00 16:12:56 22° 265° (W) 16:16:55 436.795 MHz FM
Uosat F 23 Oct 16:50:57 16:55:45 48° 72° (ENE) 17:00:35 435.120 FM
AO-7 23 Oct 17:16:36 17:24:51 75° 254° (WSW) 17:33:10 29.400 - 29.500 MHz
Hamsat 23 Oct 17:25:42 17:26:22 10° 66° (ENE) 17:27:02 145.90 MHz
Saudisat 1A 23 Oct 17:32:49 17:37:05 45° 57° (ENE) 17:41:18 436.775 MHz
UOSAT-12 23 Oct 17:34:40 17:35:28 10° 318° (NW) 17:36:16 437.025 FM, 437.400 FM
JAS-2 23 Oct 17:56:42 18:02:14 50° 70° (ENE) 18:08:29 435.800 - 435.900 CW/SSB, 435.910 FM
